Waarnemingen

Advertentie
Mijn weer
Cozzo Spadaro, Italië (16480): temperatuur & dauwpunt: 19.02.2018 06:00:00 - 25.02.2018 06:00:00 (CET)Cozzo Spadaro, Italië (16480): windsnelheid: 19.02.2018 06:00:00 - 25.02.2018 06:00:00 (CET)Cozzo Spadaro, Italië (16480): windrichting: 19.02.2018 06:00:00 - 25.02.2018 06:00:00 (CET)Cozzo Spadaro, Italië (16480): luchtdruk: 19.02.2018 06:00:00 - 25.02.2018 06:00:00 (CET)Cozzo Spadaro, Italië (16480): zicht: 19.02.2018 06:00:00 - 25.02.2018 06:00:00 (CET)Cozzo Spadaro, Italië (16480): Zonneschijnduur: 19.02.2018 06:00:00 - 25.02.2018 06:00:00 (CET)
Datum & Tijd tt [°C] td [°C] ff [km/u] ff [kn] dd ppp [hPa] vv [km] sd [min]
25.02.2018 06:00:00 - - - - - - - -
25.02.2018 05:00:00 - - - - - - - -
25.02.2018 04:00:00 - - - - - - - -
25.02.2018 03:00:00 - - - - - - - -
25.02.2018 02:00:00 - - - - - - - -
25.02.2018 01:00:00 - - - - - - - -
25.02.2018 00:00:00 - - - - - - - -
24.02.2018 23:00:00 - - - - - - - -
24.02.2018 22:00:00 - - - - - - - -
24.02.2018 21:00:00 - - - - - - - -
24.02.2018 20:00:00 - - - - - - - -
24.02.2018 19:00:00 12,2 9,6 4 2 W 1008,1 25 -
24.02.2018 18:00:00 12,6 9,4 5 3 W 1007,2 25 0
24.02.2018 17:00:00 13,4 9,5 11 6 W 1007,1 25 30
24.02.2018 16:00:00 13,8 9,4 16 9 W 1007,1 25 30
24.02.2018 15:00:00 13,8 9,4 16 9 W 1007,1 25 48
24.02.2018 14:00:00 14,0 9,4 22 12 W 1007,1 25 60
24.02.2018 13:00:00 14,0 9,7 22 12 W 1007,2 25 60
24.02.2018 12:00:00 13,8 9,8 18 10 W 1007,2 25 60
24.02.2018 11:00:00 13,8 9,2 18 10 W 1007,1 25 60
24.02.2018 10:00:00 13,2 8,5 15 8 WNW 1006,7 25 60
24.02.2018 09:00:00 12,0 7,9 9 5 WNW 1006,9 25 48
24.02.2018 08:00:00 10,0 7,6 5 3 WNW 1005,8 25 42
24.02.2018 07:00:00 9,8 8,1 11 6 WNW 1004,7 25 0
24.02.2018 06:00:00 - - - - - - - -
24.02.2018 05:00:00 - - - - - - - -
24.02.2018 04:00:00 - - - - - - - -
24.02.2018 03:00:00 - - - - - - - -
24.02.2018 02:00:00 - - - - - - - -
24.02.2018 01:00:00 - - - - - - - -
24.02.2018 00:00:00 - - - - - - - -
23.02.2018 23:00:00 - - - - - - - -
23.02.2018 22:00:00 - - - - - - - -
23.02.2018 21:00:00 - - - - - - - -
23.02.2018 20:00:00 - - - - - - - -
23.02.2018 19:00:00 11,0 7,7 24 13 WNW 997,7 25 -
23.02.2018 18:00:00 11,0 8,0 24 13 WNW 997,1 25 0
23.02.2018 17:00:00 11,6 9,7 21 11 WNW 996,3 18 0
23.02.2018 16:00:00 12,0 10,3 22 12 WNW 995,8 10 36
23.02.2018 15:00:00 12,2 10,6 24 13 W 996,1 10 0
23.02.2018 14:00:00 12,4 9,6 18 10 ZZW 996,2 10 0
23.02.2018 13:00:00 12,6 10,1 16 9 ZW 997,1 10 0
23.02.2018 12:00:00 12,8 9,6 18 10 ZW 997,1 10 0
23.02.2018 11:00:00 12,2 9,9 15 8 ZW 997,3 10 0
23.02.2018 10:00:00 12,0 10,1 28 15 ZZW 997,2 4,0 0
23.02.2018 09:00:00 14,4 12,1 28 15 ZZO 997,0 8 0
23.02.2018 08:00:00 14,4 12,3 21 11 ZO 997,1 10 0
23.02.2018 07:00:00 14,4 12,1 11 6 ZO 998,4 8 0
23.02.2018 06:00:00 - - - - - - - -
23.02.2018 05:00:00 - - - - - - - -
23.02.2018 04:00:00 - - - - - - - -
23.02.2018 03:00:00 - - - - - - - -
23.02.2018 02:00:00 - - - - - - - -
23.02.2018 01:00:00 - - - - - - - -
23.02.2018 00:00:00 - - - - - - - -
22.02.2018 23:00:00 - - - - - - - -
22.02.2018 22:00:00 - - - - - - - -
22.02.2018 21:00:00 - - - - - - - -
22.02.2018 20:00:00 - - - - - - - -
22.02.2018 19:00:00 14,8 13,0 11 6 ZZW 1001,0 12 -
22.02.2018 18:00:00 14,8 13,0 9 5 ZW 1000,7 14 0
22.02.2018 17:00:00 14,8 13,0 13 7 ZZW 1000,2 15 24
22.02.2018 16:00:00 14,8 13,0 16 9 ZZW 1000,2 10 0
22.02.2018 15:00:00 14,6 13,0 18 10 ZZW 1000,2 15 0
22.02.2018 14:00:00 14,4 12,6 18 10 ZW 1000,5 16 0
22.02.2018 13:00:00 13,6 11,7 24 13 Z 1000,9 16 0
22.02.2018 12:00:00 13,4 11,3 18 10 Z 1002,8 16 0
22.02.2018 11:00:00 13,2 10,4 11 6 Z 1002,8 18 0
22.02.2018 10:00:00 11,6 9,9 2 1 OZO 1002,9 20 0
22.02.2018 09:00:00 10,4 8,8 4 2 NNO 1002,5 18 0
22.02.2018 08:00:00 9,6 8,0 5 3 N 1002,3 20 0
22.02.2018 07:00:00 9,2 7,2 4 2 NNO 1002,2 20 0
22.02.2018 06:00:00 - - - - - - - -
22.02.2018 05:00:00 - - - - - - - -
22.02.2018 04:00:00 - - - - - - - -
22.02.2018 03:00:00 - - - - - - - -
22.02.2018 02:00:00 - - - - - - - -
22.02.2018 01:00:00 - - - - - - - -
22.02.2018 00:00:00 - - - - - - - -
21.02.2018 23:00:00 - - - - - - - -
21.02.2018 22:00:00 - - - - - - - -
21.02.2018 21:00:00 - - - - - - - -
21.02.2018 20:00:00 - - - - - - - -
21.02.2018 19:00:00 12,0 9,0 11 6 WNW 1000,1 20 -
21.02.2018 18:00:00 12,8 9,4 13 7 W 999,1 25 18
21.02.2018 17:00:00 13,4 9,5 16 9 W 999,0 25 60
21.02.2018 16:00:00 13,8 8,8 18 10 W 998,8 20 60
21.02.2018 15:00:00 13,8 8,4 21 11 WNW 998,9 25 60
21.02.2018 14:00:00 13,8 8,0 21 11 W 998,9 25 60
21.02.2018 13:00:00 13,6 8,0 18 10 W 999,0 25 60
21.02.2018 12:00:00 13,2 8,9 18 10 WNW 999,0 25 60
21.02.2018 11:00:00 12,4 9,0 16 9 W 998,4 25 60
21.02.2018 10:00:00 11,6 9,5 8 4 W 998,2 25 18
21.02.2018 09:00:00 10,0 8,1 4 2 W 998,1 20 0
21.02.2018 08:00:00 9,4 7,8 2 1 NNW 997,6 20 18
21.02.2018 07:00:00 9,4 8,0 8 4 NW 998,1 20 0
21.02.2018 06:00:00 - - - - - - - -
21.02.2018 05:00:00 - - - - - - - -
21.02.2018 04:00:00 - - - - - - - -
21.02.2018 03:00:00 - - - - - - - -
21.02.2018 02:00:00 - - - - - - - -
21.02.2018 01:00:00 - - - - - - - -
21.02.2018 00:00:00 - - - - - - - -
20.02.2018 23:00:00 - - - - - - - -
20.02.2018 22:00:00 - - - - - - - -
20.02.2018 21:00:00 - - - - - - - -
20.02.2018 20:00:00 - - - - - - - -
20.02.2018 19:00:00 12,8 10,4 8 4 WNW 1004,1 18 -
20.02.2018 18:00:00 13,0 10,0 8 4 WNW 1004,1 15 0
20.02.2018 17:00:00 13,4 10,2 11 6 W 1004,1 20 0
20.02.2018 16:00:00 13,8 10,8 15 8 W 1005,0 20 0
20.02.2018 15:00:00 14,4 10,8 15 8 W 1005,1 25 12
20.02.2018 14:00:00 14,8 11,6 18 10 WNW 1006,1 25 30
20.02.2018 13:00:00 15,0 11,0 18 10 W 1006,2 20 54
20.02.2018 12:00:00 15,0 10,2 18 10 WNW 1007,4 20 60
20.02.2018 11:00:00 14,0 9,7 15 8 W 1008,0 20 60
20.02.2018 10:00:00 13,4 9,3 15 8 WNW 1008,1 25 60
20.02.2018 09:00:00 12,0 9,4 11 6 WNW 1008,2 20 60
20.02.2018 08:00:00 10,8 8,5 11 6 WNW 1008,1 20 36
20.02.2018 07:00:00 9,8 8,1 9 5 WNW 1007,6 20 0
20.02.2018 06:00:00 - - - - - - - -
20.02.2018 05:00:00 - - - - - - - -
20.02.2018 04:00:00 - - - - - - - -
20.02.2018 03:00:00 - - - - - - - -
20.02.2018 02:00:00 - - - - - - - -
20.02.2018 01:00:00 - - - - - - - -
20.02.2018 00:00:00 - - - - - - - -
19.02.2018 23:00:00 - - - - - - - -
19.02.2018 22:00:00 - - - - - - - -
19.02.2018 21:00:00 - - - - - - - -
19.02.2018 20:00:00 - - - - - - - -
19.02.2018 19:00:00 13,0 10,7 5 3 W 1009,8 20 -
19.02.2018 18:00:00 13,8 11,1 9 5 WNW 1009,5 20 60
19.02.2018 17:00:00 14,8 10,8 16 9 WNW 1009,5 20 60
19.02.2018 16:00:00 15,6 10,8 21 11 W 1009,6 20 60
19.02.2018 15:00:00 15,6 10,6 18 10 W 1010,0 20 60
19.02.2018 14:00:00 15,8 11,0 21 11 W 1010,1 20 60
19.02.2018 13:00:00 15,0 12,9 16 9 W 1010,7 20 60
19.02.2018 12:00:00 14,8 12,7 11 6 W 1011,1 15 36
19.02.2018 11:00:00 14,0 12,4 9 5 W 1011,1 15 0
19.02.2018 10:00:00 13,2 11,6 2 1 WZW 1011,1 15 0
19.02.2018 09:00:00 12,6 11,0 2 1 WZW 1011,2 15 0
19.02.2018 08:00:00 11,8 10,2 2 1 NNW 1011,2 15 0
19.02.2018 07:00:00 11,8 10,0 2 1 NW 1011,1 15 0
19.02.2018 06:00:00 - - - - - - - -

tt = temperatuur
td = dauwpunt
ff = windsnelheid
dd = windrichting
ppp = luchtdruk
vv = zicht
sd = Zonneschijnduur

Weerstations in de omgeving